Regional Weather Roundup
Issued by NWS

Home | Current Version | Previous Version | Text Only | Print | Product List | Glossary On
Versions: 1 2 3 4 5 6 7 8 9 10 11 12 13 14 15 16 17 18 19 20 21 22 23 24 25 26 27 28 29 30 31 32 33 34 35 36 37 38 39 40 41 42 43 44 45 46 47 48 49 50
000
ASUS45 KABQ 280710
RWRNM
WEATHER ROUNDUP FOR NEW MEXICO
NATIONAL WEATHER SERVICE ALBUQUERQUE NM
1200 AM MST SUN DEC 28 2014

NOTE: "FAIR" MEANS FEW OR NO CLOUDS BELOW 12,000 FEET AGL WITH NO
       SIGNIFICANT WEATHER OR OBSTRUCTIONS TO VISION.

      THIS PRODUCT IS RELEASED AS TWO VERSIONS.  ONE VERSION NEAR
      THE TOP OF THE HOUR CONTAINING PRELIMINARY DATA FROM ALBUQUERQUE
      AND OTHER STATIONS.  A FINAL VERSION WITH ADDITIONAL DATA IS
      ISSUED ABOUT 10 MINUTES AFTER THE HOUR.

NMZ501-503-504-510>518-280800-
NORTHWEST PLATEAU/NORTHCENTRAL MOUNTAINS

CITY           SKY/WX    TMP DP  RH WIND       PRES   REMARKS
FARMINGTON     CLEAR      3  -1  83 N5        30.28F WCI  -6
LOS ALAMOS     PTCLDY    15   7  73 CALM      30.17F
SANTA FE       CLEAR     17   8  67 N13       30.18F WCI   4
TAOS           PTCLDY    -2  -8  78 N7        30.19F WCI -16
ANGEL FIRE     FAIR      -4  -7  88 NE7       30.12F WCI -18

$$
NMZ402-403-502-505>509-280800-
WESTCENTRAL MOUNTAINS/SOUTHWEST MOUNTAINS

CITY           SKY/WX    TMP DP  RH WIND       PRES   REMARKS
GALLUP         CLEAR      5   0  79 E5        30.25F WCI  -4
GRANTS         CLEAR      8   5  85 NW5       30.26F WCI   0
SILVER CITY    CLEAR     23  14  68 N8        30.27F WCI  14

$$
NMZ407-409-411-412-280800-
SOUTHERN DESERTS

CITY           SKY/WX    TMP DP  RH WIND       PRES   REMARKS
LORDSBURG      FAIR      25  21  86 S5        30.28S WCI  19
DEMING         CLEAR     24  21  88 W5        30.28F WCI  18
LAS CRUCES     CLEAR     29  24  80 NW14      30.28S WCI  18
HOLLOMAN AFB   CLEAR     23  16  74 S6        30.27S WCI  16
ALAMOGORDO     CLEAR     23  18  80 SE5       30.28S WCI  17
T OR C         CLEAR     24   9  52 W7        30.26F WCI  16

$$
NMZ519>523-280800-
CENTRAL VALLEYS/CENTRAL HIGHLANDS

CITY           SKY/WX    TMP DP  RH WIND       PRES   REMARKS
ALBUQUERQUE    CLEAR     24   9  52 N7        30.26F WCI  16
DOUBLE EAGLE   CLEAR     19   7  58 N8        30.25S WCI   9
MORIARTY ARPT  FAIR      19   7  59 W10       30.20F WCI   7
CLINES CORNERS PTCLDY    14   5  67 NW22      30.09S WCI  -4
BELEN          FAIR      17   8  70 CALM      30.27F
SOCORRO        FAIR      21  11  63 N5        30.28F WCI  15

$$
NMZ524>526-539-540-280800-
SOUTHCENTRAL MOUNTAINS

CITY           SKY/WX    TMP DP  RH WIND       PRES   REMARKS
RUIDOSO        CLEAR     19   7  58 NW8       30.20F WCI   9

$$
NMZ527>531-280800-
NORTHEAST HIGHLANDS/NORTHEAST PLAINS

CITY           SKY/WX    TMP DP  RH WIND       PRES   REMARKS
LAS VEGAS      PTCLDY    11   3  70 W6        30.07F WCI   1
RATON          PTCLDY     0  -4  83 NE6       30.07S WCI -12
CLAYTON        PTCLDY    17  12  80 W12       30.09F WCI   4

$$
NMZ532>537-280800-
EASTCENTRAL PLAINS

CITY           SKY/WX    TMP DP  RH WIND       PRES   REMARKS
TUCUMCARI      CLEAR     22  16  78 SW12      30.15F WCI  10
CANNON AFB     CLEAR     19  13  77 SW5       30.19F WCI  13
CLOVIS AIRPORT CLEAR     18  10  73 SW8       30.19F WCI   7

$$
NMZ028-029-538-280800-
SOUTHEAST PLAINS

CITY           SKY/WX    TMP DP  RH WIND       PRES   REMARKS
ROSWELL        CLEAR     22  16  78 SW7       30.25F WCI  13
ARTESIA        CLEAR     25  23  93 VRB5      30.28F WCI  19
CARLSBAD       CLEAR     29  25  85 SW5       30.28S WCI  24
HOBBS          CLEAR     27  27 100 CALM      30.29S


$$



USA.gov is the U.S. government's official web portal to all federal, state and local government web resources and services.